Flag for Belize Weather past 2 weeks in Belize City, Belize

Now
88 °F

Scattered clouds.


Feels Like: 102 °F
Forecast: 81 / 85 °F
Wind: 12 mph from East

Location: Belize / Phillip Goldston Intl. Airport

Current Time: Jul 1, 2015 at 11:13:43 AM

Latest Report: Jul 1, 2015 at 10:00 AM


Visibility: N/A

Pressure: 30.01 "Hg

Humidity: 75%

Dew point: 79 °F

Location of Belize CityLocation

Historic Weather in Belize City — Graph

°F

Belize City temperature yesterday

Maximum temperature yesterday: 88 °F (at 11:00 AM)
Minimum temperature yesterday: 82 °F (at 5:00 AM)
Average temperature yesterday: 85 °F

Past Weeks' High & Low Weather Summary

 TemperatureHumidityPressure
High88 °F (Jun 16, 1:00 PM)100% (Jun 18, 8:00 AM)30.07 "Hg (Jun 18, 8:00 AM)
Low73 °F (Jun 24, 9:00 AM)70% (Jun 17, 2:00 PM)29.88 "Hg (Jun 16, 3:00 PM)
Average84 °F84%29.98 "Hg
* Reported Jun 16 10:00 AM — Jul 1 10:00 AM, Belize City, Weather by CustomWeather, © 2015

Note: Actual official high and low records may vary slightly from our data, if they occured in-between our weather recording intervals... More about our weather records

Advertising

Belize City weather history for previous 24 hours

 ConditionsComfort  
Time TempWeatherWind HumidityBarometerVisibility
10:00 AM
Wed, Jul 1
88 °FScattered clouds.12 mph75%30.01 "HgN/A
9:00 AM86 °FScattered clouds.13 mph79%30.00 "HgN/A
8:00 AM84 °FScattered clouds.12 mph84%29.99 "HgN/A
7:00 AM82 °FPassing clouds.12 mph84%29.98 "HgN/A
6:00 AM81 °FPassing clouds.9 mph89%29.98 "HgN/A
5:00 AM81 °FPassing clouds.9 mph89%29.97 "HgN/A
12:00 AM82 °FPassing clouds.12 mph84%30.01 "HgN/A
11:00 PM
Tue, Jun 30
82 °FPassing clouds.12 mph84%30.02 "HgN/A
10:00 PM82 °FPassing clouds.12 mph84%30.01 "HgN/A
8:00 PM82 °FPassing clouds.13 mph79%29.99 "HgN/A
7:00 PM82 °FPassing clouds.14 mph84%29.97 "HgN/A
6:00 PM84 °FScattered clouds.12 mph79%29.95 "HgN/A
5:00 PM86 °FScattered clouds.13 mph79%29.95 "HgN/A
4:00 PM86 °FScattered clouds.13 mph79%29.96 "HgN/A
3:00 PM88 °FScattered clouds.12 mph75%29.98 "HgN/A
2:00 PM88 °FScattered clouds.10 mph75%29.99 "HgN/A
1:00 PM88 °FScattered clouds.13 mph75%30.00 "HgN/A
12:00 PM88 °FPassing clouds.13 mph75%30.00 "HgN/A
11:00 AM88 °FScattered clouds.15 mph75%30.01 "HgN/A
Weather by CustomWeather, © 2015

See weather overviewHow to use our weather pages